Location: Proctor
(47.8934°N, 114.3048°W)
Time: 20:18:53
(UTC+00:00)

CAS-6 - Pass Details

Date: 03 July 2022
Orbit: 613 x 634 km, 97.9° (Epoch: 11 August)

Event Time Altitude Azimuth Distance (km) Brightness Sun altitude
Exits shadow 04:26:43 - 111° (ESE) 2,341 ? -6.8°
Reaches altitude 10° 04:27:53 10° 101° (E) 2,001 ? -6.9°
Maximum altitude 04:30:39 17° 61° (ENE) 1,594 ? -7.2°
Drops below altitude 10° 04:33:26 10° 21° (NNE) 2,002 ? -7.6°
Sets 04:36:16 0° 1° (N) 2,909 ? -7.9°
